Zurück zum Katalog

COSMOS 2251 DEB

AktivLEO
NORAD 34758·DEBRIS·🇷🇺 Russia

Gestartet Jun 16, 1993 von Plesetsk Cosmodrome

Loading…

Nächste Überflüge (nächste 24 Stunden)

TLE

AktuellSource: Space-Track

Epoche: Sep 14, 2026, 07:56 UTC

1 34758U 93036AAC 26257.33100601  .00000411  00000-0  36392-3 0  9996
2 34758  74.1053 215.5997 0387383 275.7685  79.9394 13.58653489866529

Verfolge COSMOS 2251 DEB in Echtzeit mit AllMySat

Download on the App Store